Regional Weather Roundup
Issued by NWS Boston, MA

Home | Current Version | Previous Version | Text Only | Print | Product List | Glossary On
Versions: 1 2 3 4 5 6 7 8 9 10 11 12 13 14 15 16 17 18 19 20 21 22 23 24 25 26 27 28 29 30 31 32 33 34 35 36 37 38 39 40 41 42 43 44 45 46 47 48 49 50
000
ASUS41 KBOX 221210
RWRBOX

REGIONAL WEATHER ROUNDUP
NATIONAL WEATHER SERVICE TAUNTON MA
700 AM EST MON DEC 22 2014

NOTE:  "FAIR" INDICATES FEW OR NO CLOUDS BELOW 12,000 FEET WITH NO
SIGNIFICANT WEATHER AND/OR OBSTRUCTIONS TO VISIBILITY.  THE FOLLOWING
OBSERVATION LOCATIONS DO NOT REPORT PRESENT WEATHER...PROVINCETOWN...
SMITHFIELD...BLOCK ISLAND...KEENE...AND OXFORD.

MAZALL-221300-
EASTERN MASSACHUSETTS

CITY           SKY/WX    TMP DP  RH WIND       PRES   REMARKS
BOSTON         MOCLDY    33  27  78 N5        30.39R WCI  29
6HR MIN TEMP:  33; 6HR MAX TEMP:  34;

BEVERLY        CLOUDY    32  25  75 N5        30.38R WCI  27
LAWRENCE       CLOUDY    31  25  78 NE6       30.40S WCI  25
BEDFORD        CLOUDY    31  26  82 CALM      30.38R
BLUE HILL        N/A     30  27  88 N9        30.34R WCI  22
NORWOOD        CLOUDY    33  27  78 NW3       30.38R
MARSHFIELD     CLOUDY    39  39 100 N5        30.38R
PLYMOUTH       FOG       34  34 100 CALM      30.36S VSB 1/2
TAUNTON        CLOUDY    34  30  85 CALM      30.37R
NEW BEDFORD    MOCLDY    34  33  96 N3        30.36R FOG
$$

MAZALL-221300-
CAPE COD AND THE ISLANDS

CITY           SKY/WX    TMP DP  RH WIND       PRES   REMARKS
FALMOUTH       CLOUDY    32  32 100 NW5       30.35R WCI  27
HYANNIS        LGT RAIN  37  36  96 N5        30.34R
CHATHAM        CLOUDY    40  38  93 NE3       30.35R
PROVINCETOWN   MOCLDY    39  37  93 S3        30.37R
NANTUCKET      MOCLDY    38  35  89 E7        30.33R
MARTHAS VNYRD  CLOUDY    37  35  92 N6        30.34S
$$

MAZALL-221300-
CENTRAL AND WESTERN MASSACHUSETTS

CITY           SKY/WX    TMP DP  RH WIND       PRES   REMARKS
WORCESTER      CLOUDY    30  25  81 NE7       30.33S WCI  23
6HR MIN TEMP:  29; 6HR MAX TEMP:  30;

FITCHBURG      CLOUDY    34  26  72 CALM      30.38S
ORANGE         CLOUDY    32  29  88 CALM      30.36R
SPRINGFIELD    CLOUDY    32  30  93 N2        30.35S
WESTFIELD      CLOUDY    33  30  88 N3        30.36R
NORTH ADAMS    LGT SNOW  28  27  96 CALM      30.33F FOG
PITTSFIELD     CLOUDY    29  28  96 CALM      30.29S
$$

RIZALL-221300-
RHODE ISLAND

CITY           SKY/WX    TMP DP  RH WIND       PRES   REMARKS
PROVIDENCE     CLOUDY    34  30  85 N7        30.37S WCI  28
6HR MIN TEMP:  33; 6HR MAX TEMP:  35;

NEWPORT        PTCLDY    33  31  92 N10       30.35S WCI  25
BLOCK ISLAND   MOCLDY    37  34  87 NE13      30.33S WCI  29
SMITHFIELD     CLOUDY    32  23  69 NE8       30.35R WCI  25
WESTERLY       CLEAR     34  32  92 NE8       30.35R WCI  27
$$

CTZALL-221300-
CONNECTICUT

CITY           SKY/WX    TMP DP  RH WIND       PRES   REMARKS
BRADLEY INTL   CLOUDY    34  30  85 N6        30.34S WCI  29
6HR MIN TEMP:  33; 6HR MAX TEMP:  34;

HARTFORD       CLOUDY    34  30  85 VRB6      30.36S WCI  29
BRIDGEPORT     CLOUDY    36  33  89 NE9       30.33S WCI  29
DANBURY        CLOUDY    33  29  85 NE5       30.32F WCI  29
GROTON         CLOUDY    35  33  92 N7        30.33S WCI  29
NEW HAVEN      CLOUDY    37  32  82 N8        30.33S WCI  31
CHESTER        CLOUDY    34  32  93 N5        30.32F WCI  30
MERIDEN        CLOUDY    34  30  85 N5        30.34F WCI  30
WILLIMANTIC    CLOUDY    35  30  82 N3        30.35S
OXFORD         CLOUDY    32  27  80 E8        30.31S WCI  25
$$

MEZ002-015-021-024-NHZ003-005-008-011-012-014-VTZ005-008-221300-
NORTHERN NEW ENGLAND

CITY           SKY/WX    TMP DP  RH WIND       PRES   REMARKS
PORTLAND ME    MOCLDY    31  25  78 N3        30.42R
6HR MIN TEMP:  31; 6HR MAX TEMP:  31;

BANGOR ME      CLOUDY    26  24  92 N3        30.43R
CONCORD NH     CLOUDY    30  28  92 N3        30.39R
MANCHESTER NH  CLOUDY    32  25  75 N6        30.37S WCI  26
NASHUA NH      CLOUDY    32  28  85 CALM      30.40R
PORTSMOUTH NH  CLOUDY    31  25  79 N6        30.39R WCI  25
JAFFREY NH     CLOUDY    29  27  92 N3        30.34S
KEENE NH       CLOUDY    30  28  93 CALM      30.36S
BURLINGTON VT  CLOUDY    24  20  84 N6        30.38S FOG     WCI  17
MT. WASHINGTON NOT AVBL
$$

NYZ052-076-221300-
EASTERN NEW YORK

CITY           SKY/WX    TMP DP  RH WIND       PRES   REMARKS
ALBANY         FLURRIES  29  24  82 N3        30.36F
6HR MIN TEMP:  29; 6HR MAX TEMP:  30; 6HR PCP:  0.01;

NEW YORK CITY  CLOUDY    36  32  85 NE8       30.31F WCI  30
6HR MIN TEMP:  35; 6HR MAX TEMP:  37;

$$

ANZALL-221300-
MARINE OBSERVATIONS

STATION/POSITION TIME  TEMP    WIND        PRES    VSBY  WAVE
                       AIR SEA DIR/SP/G                  HT/PER
                 (UTC) (F)     (DEG/KT/KT) (MB)    (MI)  (FT/S)
BOSTON BUOY      1150   40 46   20/ 16/ 19 1028.3R         4/ 6
BUZZARDS BAY     1100           10/ 13/ 14 1027.8R
NANTUCKET SOUND  1150   43 44   30/ 10/ 12 1027.2R         1/ 4
MASS BAY-STELLWA 1104   40 44  350/ 16/ 17   N/A    1 7/8  3/ 6
ISLE OF SHOALS   1200   35      20/ 12/ 14 1028.5R
S OF BLOCK IS    1108      51                N/A           3/ 4
$$

......................KEY.........................
  SKY/WX - SKY CONDITION/PRESENT WEATHER
  TMP    - TEMPERATURE IN FAHRENHEIT
  DWPT   - DEWPOINT IN FAHRENHEIT
  RH     - RELATIVE HUMIDITY IN PERCENT
  WIND   - DIRECTION AND SPEED IN MPH
  PRES   - MEAN SEA LEVEL PRESSURE IN INCHES OF HG
  WCI    - WIND CHILL INDEX
  VSB    - VISIBILITY IN MILES
  HX     - HEAT INDEX
  TC     - TEMPERATURE IN CELSIUS
  VRB    - VARIABLE WIND DIRECTION
  N/A    - NOT AVAILABLE


USA.gov is the U.S. government's official web portal to all federal, state and local government web resources and services.